Location: Warner Observatory
(35.1353°N, 89.5455°W)
Time: 05:46:06
(UTC-05:00)

Amateur Radio Satellites - All Passes

Search period start: 23 May 2017 05:16
Search period end: 24 May 2017 05:16
Location: Warner Observatory, 35.1353°N, 89.5455°W

Satellite Date Start Highest point End Downlink Frequencies (MHz)
Time Altitude Azimuth
AO-7 23 May 05:19:59 05:28:09 59° 292° (WNW) 05:36:17 .
Tancredo 1 23 May 05:23:00 05:25:57 47° 226° (SW) 05:28:54 437.200
AO-85 23 May 05:23:47 05:27:59 55° 116° (ESE) 05:31:57 145.980
RS-15 23 May 05:28:06 05:38:17 30° 321° (NW) 05:48:40 29.354- 29.394
BEESAT 3 23 May 05:42:40 05:45:46 22° 111° (ESE) 05:48:55 437.485
PCSat 23 May 05:48:03 05:53:29 73° 62° (ENE) 05:58:52 145.827
KKS-1 23 May 06:01:46 06:04:39 17° 266° (W) 06:07:33 437.445
O/OREOS (USA 219) 23 May 06:19:57 06:22:16 14° 302° (WNW) 06:24:36 437.305
XW-2D 23 May 06:23:02 06:26:06 22° 96° (E) 06:29:08 145.860 - 145.880
CUTE-I 23 May 06:23:15 06:27:23 23° 95° (E) 06:31:31 437.470
XW-2B 23 May 06:30:40 06:33:58 27° 97° (E) 06:37:14 145.730 - 145.750
STRAND 1 23 May 06:35:34 06:39:11 20° 66° (ENE) 06:42:49 437.568
XW-2C 23 May 06:43:49 06:47:29 40° 99° (E) 06:51:06 145.795 - 145.815
STARS 23 May 06:44:59 06:47:04 13° 267° (W) 06:49:08 437.465
XW-2F 23 May 06:45:56 06:49:35 41° 99° (E) 06:53:11 145.980 - 146.000
BEESAT 2 23 May 06:49:54 06:53:41 48° 115° (ESE) 06:57:33 435.950
JUGNU 23 May 06:50:41 06:54:38 18° 180° (S) 06:58:35 437.505
NUDT-PHONESAT 23 May 06:57:29 07:01:09 46° 99° (E) 07:04:46 437.300
KAITUO 1B 23 May 07:00:19 07:04:03 52° 100° (E) 07:07:43 145.475/437.950
AO-85 23 May 07:06:47 07:08:37 13° 311° (NW) 07:10:25 145.980
DOVE 4 23 May 07:06:55 07:10:57 52° 285° (WNW) 07:15:04 437.250
M-CUBED/EXP-1 PRIME 23 May 07:07:13 07:08:18 11° 62° (ENE) 07:09:20 437.505
LilacSat-2 23 May 07:17:13 07:21:05 64° 283° (WNW) 07:24:53 437.200
AO-7 23 May 07:17:21 07:19:10 11° 311° (NW) 07:20:59 .
HO-68 23 May 07:19:37 07:25:05 23° 95° (E) 07:30:31 435.675
BEESAT 3 23 May 07:19:55 07:23:12 25° 307° (NW) 07:26:34 437.485
SRMSAT 23 May 07:23:50 07:26:32 13° 168° (SSE) 07:29:13 437.500
CUTE 1.7 + AOD 2 23 May 07:28:13 07:31:06 17° 94° (E) 07:33:57 437.475
PCSat 23 May 07:34:12 07:36:10 12° 258° (WSW) 07:38:08 145.827
RS-15 23 May 07:51:19 07:57:02 14° 356° (N) 08:02:43 29.354- 29.394
XW-2D 23 May 07:57:16 08:00:08 20° 289° (WNW) 08:02:59 145.860 - 145.880
CUTE-I 23 May 08:02:35 08:07:29 38° 290° (WNW) 08:12:23 437.470
AAUSAT CUBESAT 2 23 May 08:02:38 08:04:04 12° 92° (E) 08:05:30 437.432
XW-2B 23 May 08:05:22 08:07:55 17° 291° (WNW) 08:10:27 145.730 - 145.750
STRAND 1 23 May 08:13:14 08:18:01 41° 261° (W) 08:22:50 437.568
SO-50 23 May 08:19:46 08:24:02 40° 56° (NE) 08:28:17 436.795
XW-2C 23 May 08:19:51 08:21:15 12° 293° (WNW) 08:22:38 145.795 - 145.815
XW-2F 23 May 08:22:00 08:23:18 11° 293° (WNW) 08:24:35 145.980 - 146.000
SEEDS 23 May 08:24:07 08:28:15 52° 100° (E) 08:32:19 437.485
BEESAT 2 23 May 08:29:35 08:31:42 14° 311° (NW) 08:33:51 435.950
XW-2A 23 May 08:29:55 08:33:21 79° 284° (WNW) 08:36:47 145.665 - 145.685
M-CUBED/EXP-1 PRIME 23 May 08:37:54 08:42:18 63° 254° (WSW) 08:46:25 437.505
JUGNU 23 May 08:39:47 08:42:55 14° 190° (S) 08:46:03 437.505
AO-73 23 May 08:53:27 08:57:11 25° 96° (E) 09:00:55 145.935
CUBEBUG 2 23 May 08:59:38 09:04:13 81° 283° (WNW) 09:08:53 437.445
CUTE 1.7 + AOD 2 23 May 09:03:10 09:06:57 31° 288° (WNW) 09:10:43 437.475
ZACube-1 23 May 09:04:40 09:08:52 37° 98° (E) 09:13:06 437.345
HO-68 23 May 09:06:05 09:13:07 58° 290° (WNW) 09:20:07 435.675
SRMSAT 23 May 09:11:05 09:14:57 18° 178° (S) 09:18:49 437.500
UWE-3 23 May 09:18:18 09:22:52 84° 286° (WNW) 09:27:31 435.000/436.395/437.385
TIGRISAT 23 May 09:32:47 09:36:07 23° 70° (ENE) 09:39:30 435.000
NO-84 23 May 09:33:26 09:37:47 61° 129° (SE) 09:42:01 435.350 FM
AAUSAT CUBESAT 2 23 May 09:35:47 09:39:44 44° 286° (WNW) 09:43:38 437.432
PRISM 23 May 09:45:20 09:49:20 49° 74° (ENE) 09:53:20 437.425
FO-29 23 May 09:50:53 09:55:47 43° 72° (ENE) 10:00:41 435.910
EO-88 23 May 09:57:10 09:59:28 16° 94° (E) 10:01:45 145.990 - 145.960
SO-50 23 May 10:01:08 10:04:08 18° 250° (WSW) 10:07:09 436.795
SEEDS 23 May 10:02:07 10:03:25 11° 294° (WNW) 10:04:44 437.485
UNISAT 6 23 May 10:02:22 10:06:32 56° 75° (ENE) 10:10:45 437.425
RS-15 23 May 10:06:59 10:16:22 24° 33° (NNE) 10:25:27 29.354- 29.394
Oscar 11 23 May 10:07:11 10:11:29 57° 285° (WNW) 10:15:43 .
AO-73 23 May 10:29:31 10:33:18 27° 289° (WNW) 10:37:05 145.935
DELFI C3 23 May 10:29:32 10:33:27 66° 100° (E) 10:37:20 145.870
ZACube-1 23 May 10:41:45 10:44:50 18° 292° (WNW) 10:47:57 437.345
SRMSAT 23 May 11:00:01 11:03:23 15° 188° (S) 11:06:45 437.500
TIGRISAT 23 May 11:09:14 11:12:41 24° 264° (W) 11:16:10 435.000
NO-84 23 May 11:12:28 11:15:40 20° 325° (NW) 11:18:47 435.350 FM
EO-79 23 May 11:19:01 11:22:23 24° 70° (ENE) 11:25:46 145.935-145.965
YUBILEINY 23 May 11:22:53 11:27:27 15° 65° (ENE) 11:31:59 435.215
PRISM 23 May 11:23:59 11:24:50 11° 267° (W) 11:25:41 437.425
ESTCUBE 1 23 May 11:24:24 11:27:00 15° 93° (E) 11:29:34 437.505/2401.250
EO-88 23 May 11:30:03 11:33:07 25° 288° (WNW) 11:36:11 145.990 - 145.960
AIST 2D 23 May 11:32:54 11:36:22 78° 80° (E) 11:39:55 435.315
FO-29 23 May 11:37:43 11:41:08 17° 266° (W) 11:44:30 435.910
NANOSAT C BR1 23 May 12:05:49 12:09:59 83° 75° (ENE) 12:14:11 145.865
POLYITAN 1 23 May 12:06:43 12:10:53 86° 257° (WSW) 12:15:06 437.675
QB50P2 23 May 12:15:13 12:19:21 61° 259° (W) 12:23:31 145.880/145.840
DUCHIFAT 1 23 May 12:18:39 12:22:47 77° 257° (WSW) 12:26:58 145.980
RS-15 23 May 12:19:04 12:31:18 77° 60° (ENE) 12:42:50 29.354- 29.394
LO-87 23 May 12:25:26 12:28:46 40° 285° (WNW) 12:32:07 145.935 - 145.965
VELOX 1 23 May 12:35:54 12:39:23 23° 96° (E) 12:42:52 145.980
Gurwin Techsat 1B 23 May 12:49:00 12:51:54 15° 64° (ENE) 12:54:48 435.225
BUGSAT 1 23 May 12:52:07 12:56:06 75° 76° (ENE) 13:00:06 437.445
EO-79 23 May 12:54:45 12:58:02 22° 264° (W) 13:01:21 145.935-145.965
SPROUT 23 May 12:58:00 13:02:05 43° 99° (E) 13:06:08 437.525
ESTCUBE 1 23 May 12:59:42 13:03:56 41° 287° (WNW) 13:08:08 437.505/2401.250
YUBILEINY 23 May 13:16:38 13:25:31 85° 85° (E) 13:34:22 435.215
DX 1 23 May 13:23:28 13:27:08 26° 97° (E) 13:30:47 434.975-435.025
UKube-1 23 May 13:24:03 13:26:58 18° 95° (E) 13:29:54 .
Oscar 19 23 May 13:38:18 13:43:29 79° 76° (ENE) 13:48:42 437.125/150
AO-85 23 May 13:58:14 14:01:10 19° 52° (NE) 14:04:11 145.980
50 SAT 23 May 14:06:36 14:09:48 40° 286° (WNW) 14:12:59 437.505
VELOX 1 23 May 14:12:07 14:15:45 26° 290° (WNW) 14:19:22 145.980
AO-7 23 May 14:24:13 14:31:01 30° 60° (ENE) 14:37:50 .
Gurwin Techsat 1B 23 May 14:26:02 14:31:16 62° 259° (WSW) 14:36:32 435.225
RS-15 23 May 14:33:24 14:42:22 26° 259° (W) 14:51:03 29.354- 29.394
ITAMSAT 1 23 May 14:33:35 14:37:18 20° 66° (ENE) 14:41:02 435.822/435.867
SPROUT 23 May 14:35:23 14:37:34 14° 293° (WNW) 14:39:45 437.525
BEESAT 23 May 14:46:16 14:48:05 12° 92° (E) 14:49:55 436.000
O/OREOS (USA 219) 23 May 14:51:17 14:55:46 59° 69° (ENE) 15:00:10 437.305
UKube-1 23 May 14:59:12 15:03:02 32° 289° (WNW) 15:06:50 .
DX 1 23 May 14:59:49 15:03:09 22° 291° (WNW) 15:06:28 434.975-435.025
BEESAT 2 23 May 15:11:56 15:13:44 13° 48° (NE) 15:15:33 435.950
YUBILEINY 23 May 15:16:10 15:21:04 16° 281° (W) 15:25:58 435.215
AO-85 23 May 15:37:51 15:41:35 34° 246° (WSW) 15:45:32 145.980
BEESAT 3 23 May 15:38:43 15:42:44 64° 60° (ENE) 15:46:38 437.485
ITUPSAT 1 23 May 15:45:26 15:50:09 55° 101° (E) 15:54:52 437.325
ITAMSAT 1 23 May 16:11:34 16:16:25 42° 261° (W) 16:21:19 435.822/435.867
NO-84 23 May 16:12:35 16:13:42 11° 28° (NNE) 16:14:48 435.350 FM
AO-7 23 May 16:15:10 16:23:15 57° 257° (WSW) 16:31:24 .
BEESAT 23 May 16:21:27 16:26:10 58° 286° (WNW) 16:30:51 436.000
MOZHAYETS 4 23 May 16:35:09 16:39:47 73° 284° (WNW) 16:44:24
BEESAT 2 23 May 16:47:51 16:51:50 57° 244° (WSW) 16:55:45 435.950
CUBESAT XI-V 23 May 17:11:44 17:16:11 44° 99° (E) 17:20:36 437.345
XW-2C 23 May 17:23:33 17:25:22 13° 68° (ENE) 17:27:10 145.795 - 145.815
ITUPSAT 1 23 May 17:25:01 17:27:28 14° 295° (WNW) 17:29:55 437.325
XW-2F 23 May 17:25:16 17:27:04 13° 68° (ENE) 17:28:51 145.980 - 146.000
NUDT-PHONESAT 23 May 17:35:09 17:37:01 13° 68° (ENE) 17:38:53 437.300
KAITUO 1B 23 May 17:38:19 17:40:34 15° 69° (ENE) 17:42:50 145.475/437.950
CUTE-I 23 May 17:41:57 17:46:22 28° 68° (ENE) 17:50:48 437.470
HO-68 23 May 17:48:09 17:50:57 13° 55° (NE) 17:53:44 435.675
NO-84 23 May 17:48:21 17:51:52 86° 46° (NE) 17:55:04 435.350 FM
KKS-1 23 May 17:53:53 17:58:18 71° 284° (WNW) 18:02:42 437.445
LilacSat-2 23 May 17:55:45 17:59:15 35° 73° (ENE) 18:02:48 437.200
DOVE 4 23 May 18:08:25 18:13:14 81° 259° (W) 18:17:46 437.250
XW-2D 23 May 18:34:03 18:37:49 68° 260° (W) 18:41:37 145.860 - 145.880
STARS 23 May 18:34:42 18:39:00 58° 286° (WNW) 18:43:19 437.465
XW-2B 23 May 18:41:58 18:45:39 54° 260° (W) 18:49:25 145.730 - 145.750
PCSat 23 May 18:45:59 18:48:48 14° 103° (ESE) 18:51:36 145.827
CUBESAT XI-V 23 May 18:50:23 18:53:09 16° 293° (WNW) 18:55:52 437.345
XW-2C 23 May 18:55:43 18:59:11 34° 262° (W) 19:02:43 145.795 - 145.815
XW-2F 23 May 18:57:23 19:00:50 34° 262° (W) 19:04:20 145.980 - 146.000
XW-2A 23 May 18:58:53 19:01:13 18° 71° (ENE) 19:03:34 145.665 - 145.685
NUDT-PHONESAT 23 May 19:07:17 19:10:35 31° 263° (W) 19:13:57 437.300
KAITUO 1B 23 May 19:11:03 19:14:18 28° 263° (W) 19:17:36 145.475/437.950
SEEDS 23 May 19:12:51 19:16:15 24° 70° (ENE) 19:19:40 437.485
CUTE-I 23 May 19:21:35 19:26:16 31° 263° (W) 19:30:58 437.470
HO-68 23 May 19:30:19 19:37:28 77° 73° (ENE) 19:44:40 435.675
LilacSat-2 23 May 19:32:03 19:33:39 12° 267° (W) 19:35:15 437.200
AO-73 23 May 19:47:41 19:49:20 12° 66° (ENE) 19:51:01 145.935
CUTE 1.7 + AOD 2 23 May 19:51:37 19:55:52 71° 259° (W) 20:00:10 437.475
CUBEBUG 2 23 May 19:54:38 19:58:39 53° 75° (ENE) 20:02:43 437.445
ZACube-1 23 May 19:58:15 20:01:08 18° 68° (ENE) 20:04:03 437.345
UWE-3 23 May 20:12:07 20:16:06 49° 75° (ENE) 20:20:11 435.000/436.395/437.385
Tancredo 1 23 May 20:18:24 20:20:30 17° 129° (SE) 20:22:37 437.200
ISS 23 May 20:18:45 20:19:38 11° 126° (SE) 20:20:31 437.550
AAUSAT CUBESAT 2 23 May 20:21:53 20:26:04 73° 76° (ENE) 20:30:14 437.432
PCSat 23 May 20:26:13 20:31:34 63° 298° (WNW) 20:36:59 145.827
STRAND 1 23 May 20:26:29 20:31:39 86° 103° (ESE) 20:36:48 437.568
XW-2A 23 May 20:31:30 20:33:50 18° 265° (W) 20:36:11 145.665 - 145.685
SEEDS 23 May 20:48:23 20:51:48 24° 264° (W) 20:55:15 437.485
Oscar 11 23 May 20:58:12 21:02:29 70° 77° (ENE) 21:06:49 .
DELFI C3 23 May 21:12:03 21:15:16 24° 71° (ENE) 21:18:28 145.870
AO-73 23 May 21:21:04 21:25:06 47° 261° (W) 21:29:11 145.935
HO-68 23 May 21:21:36 21:25:47 16° 268° (W) 21:29:59 435.675
ZACube-1 23 May 21:33:29 21:37:09 30° 263° (W) 21:40:54 437.345
UWE-3 23 May 21:52:06 21:52:51 10° 269° (W) 21:53:35 435.000/436.395/437.385
ISS 23 May 21:52:30 21:55:44 56° 320° (NW) 21:58:59 437.550
Tancredo 1 23 May 21:53:17 21:56:05 31° 323° (NW) 21:58:54 437.200
M-CUBED/EXP-1 PRIME 23 May 21:54:19 21:57:28 42° 290° (WNW) 22:00:32 437.505
UNISAT 6 23 May 21:57:57 22:00:53 16° 94° (E) 22:03:47 437.425
EO-88 23 May 22:03:42 22:07:21 78° 76° (ENE) 22:11:01 145.990 - 145.960
STRAND 1 23 May 22:09:53 22:10:03 10° 299° (WNW) 22:10:12 437.568
ESTCUBE 1 23 May 22:23:18 22:23:38 10° 64° (ENE) 22:23:59 437.505/2401.250
SO-50 23 May 22:31:12 22:35:05 27° 112° (ESE) 22:38:57 436.795
FO-29 23 May 22:45:35 22:51:57 59° 101° (ESE) 22:59:05 435.910
DELFI C3 23 May 22:46:54 22:49:56 21° 265° (W) 22:52:59 145.870
LO-87 23 May 22:58:01 23:01:22 40° 75° (ENE) 23:04:43 145.935 - 145.965
TIGRISAT 23 May 23:02:21 23:06:58 83° 103° (ESE) 23:11:37 435.000
PRISM 23 May 23:04:44 23:08:45 61° 285° (WNW) 23:12:44 437.425
VELOX 1 23 May 23:31:02 23:33:29 15° 66° (ENE) 23:35:56 145.980
UNISAT 6 23 May 23:33:22 23:37:40 40° 287° (WNW) 23:42:01 437.425
SPROUT 23 May 23:48:41 23:51:56 22° 70° (ENE) 23:55:11 437.525
NANOSAT C BR1 23 May 23:54:17 23:57:02 17° 94° (E) 23:59:46 145.865
ESTCUBE 1 23 May 23:55:18 23:59:48 69° 258° (WSW) 00:04:21 437.505/2401.250
POLYITAN 1 23 May 23:55:25 23:58:32 19° 95° (E) 00:01:37 437.675
QB50P2 24 May 00:03:28 00:07:05 26° 97° (E) 00:10:41 145.880/145.840
DUCHIFAT 1 24 May 00:06:23 00:09:35 21° 95° (E) 00:12:46 145.980
SO-50 24 May 00:11:30 00:15:27 28° 307° (NW) 00:19:22 436.795
DX 1 24 May 00:16:42 00:19:26 16° 67° (ENE) 00:22:09 434.975-435.025
UKube-1 24 May 00:17:28 00:18:27 11° 64° (ENE) 00:19:26 .
YUBILEINY 24 May 00:20:33 00:26:02 19° 80° (E) 00:31:32 435.215
FO-29 24 May 00:31:52 00:36:37 22° 293° (WNW) 00:41:46 435.910
RS-15 24 May 00:34:02 00:38:04 12° 95° (E) 00:42:08 29.354- 29.394
AIST 2D 24 May 00:34:06 00:37:35 51° 284° (WNW) 00:41:01 435.315
50 SAT 24 May 00:35:29 00:38:41 35° 74° (ENE) 00:41:52 437.505
BUGSAT 1 24 May 00:38:21 00:40:26 13° 94° (E) 00:42:30 437.445
EO-79 24 May 00:41:16 00:45:31 71° 101° (E) 00:49:46 145.935-145.965
VELOX 1 24 May 01:05:19 01:09:32 43° 261° (W) 01:13:45 145.980
SPROUT 24 May 01:24:09 01:27:40 25° 264° (W) 01:31:13 437.525
NANOSAT C BR1 24 May 01:28:58 01:32:46 33° 288° (WNW) 01:36:35 145.865
POLYITAN 1 24 May 01:30:35 01:34:17 29° 289° (WNW) 01:37:59 437.675
QB50P2 24 May 01:39:26 01:42:41 22° 290° (WNW) 01:45:57 145.880/145.840
DUCHIFAT 1 24 May 01:41:37 01:45:11 27° 289° (WNW) 01:48:45 145.980
UKube-1 24 May 01:49:41 01:53:56 59° 259° (W) 01:58:12 .
BEESAT 24 May 01:51:04 01:51:55 10° 63° (ENE) 01:52:44 436.000
DX 1 24 May 01:51:14 01:55:16 37° 261° (W) 01:59:20 434.975-435.025
Oscar 19 24 May 01:53:28 01:58:11 35° 98° (E) 02:02:50 437.125/150
BUGSAT 1 24 May 02:12:03 02:15:53 39° 287° (WNW) 02:19:46 437.445
YUBILEINY 24 May 02:13:03 02:21:45 77° 277° (W) 02:30:32 435.215
RS-15 24 May 02:36:18 02:48:08 70° 113° (ESE) 03:00:22 29.354- 29.394
Gurwin Techsat 1B 24 May 02:45:24 02:50:42 69° 102° (ESE) 02:55:59 435.225
ITUPSAT 1 24 May 02:48:54 02:53:24 44° 73° (ENE) 02:57:57 437.325
BEESAT 24 May 03:24:17 03:29:01 73° 258° (WSW) 03:33:47 436.000
O/OREOS (USA 219) 24 May 03:25:30 03:25:47 10° 97° (E) 03:26:03 437.305
Oscar 19 24 May 03:33:12 03:37:15 24° 293° (WNW) 03:41:17 437.125/150
MOZHAYETS 4 24 May 03:33:22 03:37:56 72° 76° (ENE) 03:42:32
AO-85 24 May 04:11:34 04:13:09 12° 109° (ESE) 04:14:43 145.980
CUBESAT XI-V 24 May 04:11:48 04:15:54 31° 71° (ENE) 04:20:02 437.345
YUBILEINY 24 May 04:16:45 04:20:03 12° 297° (WNW) 04:23:21 435.215
AO-7 24 May 04:20:04 04:28:21 61° 104° (ESE) 04:36:34 .
Tancredo 1 24 May 04:20:28 04:23:28 53° 40° (NE) 04:26:28 437.200
ISS 24 May 04:23:03 04:26:06 35° 37° (NE) 04:29:08 437.550
ITAMSAT 1 24 May 04:27:10 04:32:24 88° 105° (ESE) 04:37:37 435.822/435.867
Gurwin Techsat 1B 24 May 04:27:33 04:30:00 13° 297° (WNW) 04:32:28 435.225
ITUPSAT 1 24 May 04:28:33 04:31:24 16° 267° (W) 04:34:17 437.325
JUGNU 24 May 04:47:51 04:51:11 15° 171° (S) 04:54:31 437.505
KKS-1 24 May 04:48:20 04:52:45 70° 75° (ENE) 04:57:09 437.445
O/OREOS (USA 219) 24 May 05:00:01 05:04:33 62° 291° (WNW) 05:09:07 437.305
